SL-16 DEB, 29098

Orbit data source: Space-Track

SL-16 DEB, 29098 is space debris in LEO originally from a launch on Fri, 26 Mar 1993 UTC launched from the Tyuratam Missile And Space Complex (TTMTR). Debris objects in space refer to the collection of defunct objects orbiting the Earth. Examples of debris include non-operational satellites, rocket bodies, and fragments generated from explosions, collisions, or faulty payload assembly.

Loading next visibility...
Identifier
29098, 1993-016AM
Orbit
LEO
Country
Flag of CISCIS
Related business
Manufacturer
Unknown
Mission
Spacecraft
Bus & Motor
Unknown
Mass
Unknown
Launch date (UTC)
1993-03-26 (32 years ago)
Launch vehicle
Unknown
Launch site
Tyuratam Missile And Space Complex (TTMTR)
Object type
Payload
Rocket body
Debris
Shape & HBR
Unknown
Radar Cross Section
Small (<0.1 m²)

Expand to show TLE details & history
Last TLE update: 1 day ago

TLE from 1 day ago
0 SL-16 DEB
1 29098U 93016AM  25258.04400641  .00001029  00000-0  51865-3 0  9998
2 29098  70.9263  28.4883 0083681 255.8187 223.5037 14.16934472631803
Epoch: 2025-09-15T01:03Z
TLE epoch observation values (Epoch: 2025-09-15T01:03:22.153Z)
Latitude
56.13251°
Longitude
167.56224°
Altitude
888.581 km
Speed
7.391 km/s
True Right ascension
11h 50m 38s
True Declination
55° 58' 34"
Sunlit
Object was in daylight at epoch
Visualization orbit readout
Latitude
Unknown
Longitude
Unknown
Altitude
Unknown
Speed
Unknown
Apparent Right ascension
Unknown
Apparent Declination
Unknown
Sunlit
N/A
Visualization observer readout
Local Sidereal Time
17:22:38
Azimuth
Unknown
Elevation
Unknown
Doppler factor
Unknown
Orbital elements
Apogee altitude
894.018 km
Perigee altitude
773.32 km
Semi-major axis
7,211.806 km
Eccentricity
0.00837
Inclination
70.9263°
RAAN
28.4883°
Arg. of periapsis
255.8187°
True anomaly
222.84857°
Mean anomaly
223.5037°
Eccentric anomaly
223.17564°
Mean motion
3.54386 °/min
Orbital period
101.58 mins
BSTAR
0.00051865
Loading maneuver chart data...
Computing Atmospheric mass density...
Loading historical data...
Loading historical data...
Loading historical data...
Loading historical data...
Loading historical data...
Loading historical data...
Loading historical data...

Documentation

Showing up to 5 results
|